Create Custom Reports and Graphics: Custom Report

Top of 22 - 10,067ft

Current Conditions

7/14/24 3:15 PM (-07:00)
Updated Every 15 Minutes
Temp 70.4 °F   4.4
RH 35 %   9
Dew Pt 41.3 °F   4.0
Wet Bulb 54.0 °F   0.3
Wind Dir SSW | 209 °
Wind Spd 11.3 mph   3.6
Wind Gust 22.1 mph   4.3
Daily Max Wind 42.7 mph   4.8
Time of Max Wind 0855
Max Wind Dir SW | 223 °
Daily Max Temp 75.3 °F   1.8
Time of Max Temp 1440
Daily Min Temp 47.0 °F   9.5
Time of Min Temp 1008
Yest MinT 49.7 °F
Yest MaxT 77.3 °F
Yest MaxGst 70.6 mph
Calm: 0.0%
Calm: 0.0%

Last 7 Days

Top of 22 - 10,067ft

Hourly Data | America/Los_Angeles
as of 7/14/24 3:15 PM PDT
Date & Time Temp (°F) RH (%) Dew Pt (°F) Wet Bulb (°F) Wind Dir (°) Wind Spd (mph) Wind Gust (mph) Wind Gst Dir (°) Daily Min Temp (°F) Daily Max Temp (°F) Daily Max Wind (mph)
7/14/24 - 1500 72.4 34 42.5 55.1 S | 180 4.2 17.0 W | 273 47.0 75.3 42.7
7/14/24 - 1400 64.5 44 42.1 52.4 SSW | 195 6.6 20.9 SSE | 157 47.0 68.4 42.7
7/14/24 - 1300 61.0 48 41.4 50.8 SSW | 202 9.5 28.6 SW | 227 47.0 63.4 42.7
7/14/24 - 1200 57.8 55 41.5 49.6 SSW | 200 11.4 27.9 SSW | 212 47.0 59.8 42.7
7/14/24 - 1100 50.6 70 40.9 46.1 SW | 219 11.7 22.2 SW | 216 47.0 55.9 42.7
7/14/24 - 1000 52.2 70 42.6 47.7 SW | 236 18.7 41.7 SW | 225 48.0 55.9 42.7
7/14/24 - 0900 53.2 69 43.4 48.5 SW | 221 20.6 42.7 SW | 223 52.1 55.9 42.7
7/14/24 - 0800 52.8 66 41.8 47.6 SW | 228 21.3 30.1 SSW | 212 52.1 55.9 30.1
7/14/24 - 0700 53.0 64 41.1 47.3 SW | 229 21.5 28.4 SW | 224 52.3 55.9 28.4
7/14/24 - 0600 53.0 65 41.7 47.6 SW | 230 18.4 22.3 SW | 233 52.3 55.9 23.2
7/14/24 - 0500 54.8 59 40.6 47.9 SW | 222 19.0 23.2 SW | 222 52.3 55.9 23.2
7/14/24 - 0400 53.2 55 37.2 45.7 S | 171 6.0 15.2 SW | 215 52.3 54.1 15.2
7/14/24 - 0300 52.8 57 37.9 45.8 ESE | 122 4.6 7.2 ESE | 110 52.3 53.8 8.9
7/14/24 - 0200 53.4 59 39.4 46.7 E | 100 5.3 8.9 SE | 132 53.2 53.8 8.9
7/14/24 - 0100 53.2 60 39.6 46.7 E | 80 5.3 12.5 E | 83 49.7 77.3 70.6
7/14/24 - 0000 53.7 64 41.9 48.0 E | 92 11.9 16.2 E | 82 49.7 77.3 70.6
7/13/24 - 2300 51.1 75 43.6 47.7 ESE | 121 4.8 10.8 E | 85 49.7 77.3 70.6
7/13/24 - 2200 51.7 80 45.9 49.2 ESE | 104 9.2 18.4 ENE | 69 50.9 77.3 70.6
7/13/24 - 2100 54.6 66 43.1 49.0 E | 87 15.5 32.8 E | 87 52.2 77.3 70.6
7/13/24 - 2000 60.0 44 37.8 48.8 SW | 226 21.1 25.7 SW | 235 52.2 77.3 70.6
7/13/24 - 1900 57.6 45 36.6 47.4 WSW | 237 20.0 28.0 WSW | 256 52.2 77.3 70.6
7/13/24 - 1800 53.5 59 39.7 46.9 SW | 222 32.7 52.4 S | 191 52.2 77.3 70.6
7/13/24 - 1700 60.0 49 40.2 49.8 SSE | 160 37.9 70.6 SE | 137 52.8 77.3 70.6
7/13/24 - 1600 73.8 26 36.4 53.1 SW | 216 9.6 26.8 SW | 214 56.5 77.3 37.9
7/13/24 - 1500 73.9 25 36.0 53.0 S | 179 3.6 16.8 W | 264 56.5 77.0 37.9
7/13/24 - 1400 69.1 30 36.2 51.5 ENE | 77 10.2 32.9 ENE | 76 56.5 72.9 37.9
7/13/24 - 1300 70.7 26 34.6 51.5 SE | 124 17.4 33.5 ENE | 67 56.5 72.9 37.9
7/13/24 - 1200 70.6 26 34.0 51.2 ESE | 112 11.8 35.0 SE | 130 56.5 72.9 37.9
7/13/24 - 1100 65.6 31 34.4 49.6 SW | 225 10.3 25.1 SW | 216 56.5 69.6 37.9
7/13/24 - 1000 62.4 33 33.1 48.0 SW | 225 18.7 28.4 SW | 224 56.5 64.6 37.9
7/13/24 - 0900 61.4 33 31.9 47.2 SW | 224 24.3 37.9 SW | 225 56.5 64.6 37.9
7/13/24 - 0800 63.1 28 29.6 47.1 SW | 217 14.9 29.6 SW | 221 56.5 64.6 29.6
7/13/24 - 0700 60.8 30 28.9 45.9 SSE | 159 5.3 12.1 SE | 135 56.5 64.6 21.9
7/13/24 - 0600 61.4 30 29.4 46.3 ENE | 58 4.7 8.2 NE | 52 56.5 64.6 21.9
7/13/24 - 0500 58.0 34 29.7 45.0 SE | 141 7.9 14.5 N | 3 56.5 64.6 21.9
7/13/24 - 0400 58.6 33 29.8 45.3 S | 178 10.7 16.7 NE | 52 57.2 64.6 21.9
7/13/24 - 0300 60.4 31 30.0 46.1 E | 86 13.3 21.9 N | 11 59.1 64.6 21.9
7/13/24 - 0200 62.5 29 30.0 47.0 S | 183 8.5 16.9 N | 11 61.1 64.6 16.9
7/13/24 - 0100 61.0 32 30.9 46.7 W | 259 8.5 11.9 NW | 306 58.7 79.2 55.2
7/13/24 - 0000 64.2 29 31.2 48.0 SSW | 203 7.8 16.6 N | 1 58.7 79.2 55.2
7/12/24 - 2300 62.6 36 35.1 48.9 SW | 220 11.4 22.4 SSW | 199 58.7 79.2 55.2
7/12/24 - 2200 63.2 36 35.3 49.1 SW | 215 19.2 33.0 SSW | 212 58.7 79.2 55.2
7/12/24 - 2100 63.8 39 37.6 50.4 SW | 233 21.6 30.3 SW | 220 58.7 79.2 55.2
7/12/24 - 2000 67.2 24 29.2 48.5 SW | 224 19.2 24.3 SW | 231 58.7 79.2 55.2
7/12/24 - 1900 69.6 24 31.0 49.9 SW | 234 15.2 20.3 WSW | 250 58.7 79.2 55.2
7/12/24 - 1800 71.5 23 31.7 50.8 SW | 228 8.6 18.8 SW | 224 58.7 79.2 55.2
7/12/24 - 1700 72.3 23 32.2 51.2 SW | 232 8.6 19.3 WSW | 239 58.7 79.2 55.2
7/12/24 - 1600 68.7 24 30.4 49.4 S | 169 23.5 55.2 SE | 138 58.7 79.2 55.2
7/12/24 - 1500 72.5 21 30.1 50.7 S | 173 18.5 35.7 SE | 129 58.7 79.2 35.7
7/12/24 - 1400 75.6 17 28.0 51.0 SE | 137 9.9 21.3 ESE | 106 58.7 79.2 31.6
7/12/24 - 1300 77.3 17 28.5 51.7 ESE | 107 10.3 19.0 E | 96 58.7 79.2 31.6
7/12/24 - 1200 76.2 17 28.6 51.4 E | 87 9.8 22.3 E | 97 58.7 78.6 31.6
7/12/24 - 1100 74.8 20 31.4 51.8 E | 89 6.6 17.0 E | 101 58.7 78.6 31.6
7/12/24 - 1000 69.3 23 29.8 49.5 NE | 52 4.3 14.3 E | 86 58.7 71.2 31.6
7/12/24 - 0900 67.4 23 28.5 48.4 S | 176 0.9 2.1 NNW | 341 58.7 71.2 31.6
7/12/24 - 0800 62.2 26 27.3 46.0 S | 181 1.4 6.3 NNE | 19 58.7 65.6 31.6
7/12/24 - 0700 62.1 25 25.8 45.6 SE | 145 2.1 5.8 NE | 53 58.7 65.6 31.6
7/12/24 - 0600 60.5 26 25.3 44.7 SSW | 196 3.6 15.9 ENE | 78 58.7 65.6 31.6
7/12/24 - 0500 61.7 25 25.1 45.2 ENE | 59 4.6 9.7 ENE | 62 60.7 65.6 31.6
7/12/24 - 0400 63.3 24 25.4 46.0 S | 187 1.5 7.4 NE | 51 60.7 65.6 31.6
7/12/24 - 0300 62.6 25 26.2 45.9 S | 185 5.3 14.5 ESE | 123 61.7 64.9 31.6
7/12/24 - 0200 63.6 24 25.8 46.2 SSW | 203 11.6 31.6 SSW | 204 62.6 64.9 31.6
7/12/24 - 0100 65.4 22 26.0 47.0 SSW | 206 17.5 23.7 SW | 219 61.9 80.9 38.8
7/12/24 - 0000 64.0 25 27.5 46.8 SW | 228 20.8 24.2 SW | 233 61.9 80.9 38.8
7/11/24 - 2300 64.5 30 32.4 48.6 SW | 233 23.7 26.8 SW | 233 61.9 80.9 38.8
7/11/24 - 2200 63.8 34 35.1 49.3 SW | 222 27.7 33.3 SW | 222 61.9 80.9 38.8
7/11/24 - 2100 65.6 35 37.4 50.8 SW | 229 24.9 29.8 SW | 221 61.9 80.9 38.8
7/11/24 - 2000 66.9 31 35.0 50.4 SW | 220 25.0 33.8 SSW | 200 61.9 80.9 38.8
7/11/24 - 1900 73.6 19 28.9 50.7 SW | 217 22.6 38.8 SSW | 205 61.9 80.9 38.8
7/11/24 - 1800 73.1 15 22.4 48.9 SW | 221 18.0 35.7 SW | 226 61.9 80.9 35.7
7/11/24 - 1700 77.1 13 22.5 50.2 SSW | 210 15.4 34.7 SSW | 202 61.9 80.9 35.6
7/11/24 - 1600 76.2 14 22.7 50.0 S | 184 14.1 33.9 SW | 217 61.9 80.9 35.6
7/11/24 - 1500 78.9 12 22.1 50.7 S | 188 13.8 32.4 SW | 224 61.9 80.9 35.6
7/11/24 - 1400 76.4 12 20.1 49.5 SSW | 205 9.0 28.8 SW | 214 61.9 80.0 35.6
7/11/24 - 1300 78.1 12 20.5 50.1 SSW | 205 7.8 22.5 SSW | 201 61.9 80.0 35.6
7/11/24 - 1200 74.2 13 20.4 48.8 SSW | 205 6.6 17.6 SSW | 202 61.9 77.8 35.6
7/11/24 - 1100 72.6 14 19.8 48.2 SW | 221 8.3 20.2 SSW | 207 61.9 74.1 35.6
7/11/24 - 1000 68.8 15 19.5 46.7 SSW | 200 8.2 17.1 SSW | 204 61.9 69.7 35.6
7/11/24 - 0900 68.8 16 20.1 46.8 SE | 145 4.8 12.1 SE | 138 61.9 69.7 35.6
7/11/24 - 0800 63.8 16 17.2 44.2 ESE | 118 5.0 13.0 SE | 138 61.9 67.8 35.6
7/11/24 - 0700 62.4 14 12.5 42.8 SE | 141 3.0 15.2 SE | 143 61.9 65.0 35.6
7/11/24 - 0600 63.7 13 11.6 43.2 SSE | 167 8.0 22.7 SSW | 206 62.0 65.0 35.6
7/11/24 - 0500 62.4 14 11.8 42.6 SSW | 210 21.3 28.5 E | 83 62.1 64.3 35.6
7/11/24 - 0400 63.0 13 11.6 42.9 SW | 225 25.4 29.9 SW | 230 62.5 64.3 35.6
7/11/24 - 0300 63.5 13 11.1 43.0 SW | 220 27.5 33.4 SW | 216 63.1 64.3 35.6
7/11/24 - 0200 63.4 13 11.0 43.0 SW | 218 30.5 35.6 SW | 217 63.1 63.6 35.6
7/11/24 - 0100 64.1 12 11.1 43.3 SW | 216 31.9 37.5 SW | 218 58.4 76.4 53.8
7/11/24 - 0000 63.8 15 15.6 43.9 SW | 217 29.5 36.4 SW | 217 58.4 76.4 53.8
7/10/24 - 2300 63.9 18 19.3 44.7 SW | 220 29.4 35.5 SW | 214 58.4 76.4 53.8
7/10/24 - 2200 64.6 17 18.3 44.8 SW | 223 29.3 34.8 SW | 225 58.4 76.4 53.8
7/10/24 - 2100 65.0 15 16.4 44.6 SW | 228 30.4 37.4 SW | 228 58.4 76.4 53.8
7/10/24 - 2000 68.5 15 18.7 46.4 SW | 227 30.4 42.5 SW | 225 58.4 76.4 53.8
7/10/24 - 1900 71.5 14 20.2 47.8 SW | 222 29.0 41.6 SW | 229 58.4 76.4 53.8
7/10/24 - 1800 74.4 13 20.3 48.9 SW | 218 27.3 48.8 SW | 221 58.4 76.4 53.8
7/10/24 - 1700 73.9 13 19.4 48.5 SW | 217 26.0 43.8 SSW | 212 58.4 76.4 53.8
7/10/24 - 1600 74.6 12 18.6 48.6 SW | 218 24.9 46.8 SW | 226 58.4 76.4 53.8
7/10/24 - 1500 72.8 12 16.9 47.7 SW | 216 31.2 53.8 SW | 214 58.4 76.4 53.8
7/10/24 - 1400 73.7 11 15.8 47.8 SW | 216 32.6 53.0 SW | 214 58.4 76.4 53.0
7/10/24 - 1300 73.1 11 16.1 47.6 SSW | 203 21.6 46.9 SW | 224 58.4 76.4 46.9
7/10/24 - 1200 75.1 9 12.9 47.8 SSE | 168 19.0 37.0 SSW | 192 58.4 76.4 37.0
7/10/24 - 1100 71.9 12 15.1 47.1 SSE | 167 9.2 27.5 ESE | 123 58.4 75.4 27.5
7/10/24 - 1000 70.1 20 26.8 49.0 ESE | 120 3.9 11.2 SW | 226 58.4 70.8 19.3
7/10/24 - 0900 65.8 25 29.2 48.0 E | 97 2.5 7.7 SE | 130 58.4 69.8 19.3
7/10/24 - 0800 63.2 23 25.1 45.8 E | 97 2.0 8.3 ENE | 67 58.4 65.7 19.3
7/10/24 - 0700 61.5 25 24.8 45.0 ESE | 114 1.1 3.4 ESE | 107 58.4 65.7 19.3
7/10/24 - 0600 59.7 25 24.0 44.1 E | 86 3.9 9.2 E | 92 58.4 64.4 19.3
7/10/24 - 0500 59.9 25 24.2 44.2 ESE | 110 1.9 5.9 SE | 136 58.4 64.4 19.3
7/10/24 - 0400 62.0 23 24.0 45.1 ESE | 122 6.0 9.9 SE | 125 59.8 64.4 19.3
7/10/24 - 0300 61.0 21 20.7 43.8 SSE | 150 5.2 9.1 SSW | 202 59.8 64.2 19.3
7/10/24 - 0200 62.8 19 19.8 44.4 SSW | 194 13.3 19.3 SSW | 193 62.1 64.2 19.3
7/10/24 - 0100 62.8 20 21.2 44.7 SSW | 192 22.6 30.4 S | 190 61.1 78.8 47.5
7/10/24 - 0000 62.2 23 24.4 45.3 SSW | 202 32.2 39.1 SSW | 202 61.1 78.8 47.5
7/9/24 - 2300 62.6 31 31.2 47.4 SSW | 204 38.1 43.2 SSW | 207 61.1 78.8 47.5
7/9/24 - 2200 62.4 27 28.0 46.4 SSW | 211 37.0 47.5 SSW | 213 61.1 78.8 47.5
7/9/24 - 2100 63.0 28 29.1 46.9 SW | 223 37.7 45.0 SSW | 212 61.1 78.8 45.0
7/9/24 - 2000 66.0 28 31.9 48.9 SW | 226 36.0 42.0 SW | 229 61.1 78.8 44.7
7/9/24 - 1900 70.1 20 27.6 49.2 SW | 230 33.3 44.7 SW | 224 61.1 78.8 44.7
7/9/24 - 1800 73.0 18 26.9 50.0 SW | 229 30.1 43.1 SW | 218 61.1 78.8 44.0
7/9/24 - 1700 74.2 18 28.3 50.7 SW | 226 28.3 44.0 SW | 217 61.1 78.8 44.0
7/9/24 - 1600 75.9 17 27.9 51.2 SW | 218 21.9 39.9 SW | 225 61.1 78.8 39.9
7/9/24 - 1500 75.0 16 25.2 50.2 SW | 223 18.9 34.6 SW | 219 61.1 78.8 36.8
7/9/24 - 1400 75.9 11 17.6 48.9 SW | 221 16.5 29.4 SSW | 200 61.1 78.8 36.8
7/9/24 - 1300 74.6 9 13.0 47.7 SW | 224 15.5 26.1 SW | 234 61.1 78.8 36.8
7/9/24 - 1200 77.3 13 22.8 50.4 SSE | 159 7.5 21.4 SSW | 205 61.1 78.8 36.8
7/9/24 - 1100 74.0 16 25.5 49.9 ESE | 102 3.2 9.2 NE | 56 61.1 75.5 36.8
7/9/24 - 1000 70.6 18 24.9 48.6 E | 91 3.2 9.2 E | 98 61.1 73.1 36.8
7/9/24 - 0900 67.0 13 12.8 44.9 ESE | 121 5.5 10.3 SE | 146 61.1 68.3 36.8
7/9/24 - 0800 66.1 8 2.0 43.0 SSE | 167 9.6 17.4 S | 191 61.1 67.6 36.8
7/9/24 - 0700 62.1 7 -2.1 40.8 S | 178 15.2 20.9 S | 185 61.1 65.1 36.8
7/9/24 - 0600 62.0 7 -2.6 40.7 S | 175 16.9 21.5 S | 187 61.2 65.1 36.8
7/9/24 - 0500 63.9 7 -0.1 41.8 S | 178 16.8 22.2 S | 184 61.2 65.1 36.8
7/9/24 - 0400 62.1 8 0.7 41.1 S | 186 19.7 28.0 SSW | 201 61.2 63.6 36.8
7/9/24 - 0300 62.4 11 7.7 42.1 SSW | 203 29.4 34.4 SSW | 195 61.4 63.6 36.8
7/9/24 - 0200 62.7 16 15.4 43.5 SSW | 200 33.1 36.8 SSW | 205 61.5 63.6 36.8
7/9/24 - 0100 62.0 20 20.9 44.3 SSW | 204 35.0 38.5 SSW | 206 60.0 80.1 47.4
7/9/24 - 0000 62.6 24 25.4 45.7 SSW | 206 36.6 41.0 SSW | 207 60.0 80.1 47.4
7/8/24 - 2300 62.6 28 28.7 46.6 SSW | 207 39.6 44.3 SSW | 212 60.0 80.1 47.4
7/8/24 - 2200 63.0 27 28.6 46.8 SSW | 209 41.0 46.0 SW | 215 60.0 80.1 47.4
7/8/24 - 2100 64.3 28 30.6 47.9 SW | 218 37.4 47.4 SW | 218 60.0 80.1 47.4
7/8/24 - 2000 67.0 28 33.0 49.7 SW | 227 31.9 47.1 SW | 223 60.0 80.1 47.1
7/8/24 - 1900 72.7 25 35.1 52.3 SW | 223 25.9 44.2 SW | 223 60.0 80.1 44.2
7/8/24 - 1800 73.8 25 35.9 52.9 SW | 217 22.4 38.5 SSW | 200 60.0 80.1 39.9
7/8/24 - 1700 76.3 23 35.3 53.5 SW | 216 17.7 35.7 SSW | 206 60.0 80.1 39.9
7/8/24 - 1600 76.3 20 32.8 52.7 SW | 217 18.1 35.0 SW | 227 60.0 80.1 39.9
7/8/24 - 1500 76.8 19 30.9 52.3 SW | 214 19.4 39.9 SW | 221 60.0 80.1 39.9
7/8/24 - 1400 76.4 18 29.1 51.6 SSW | 209 19.3 38.4 SSW | 213 60.0 80.1 38.4
7/8/24 - 1300 77.4 17 29.8 52.1 S | 175 13.4 32.5 SE | 143 60.0 79.5 32.5
7/8/24 - 1200 77.6 20 33.4 53.3 SE | 145 7.3 17.5 SW | 228 60.0 79.2 18.9
7/8/24 - 1100 74.6 24 35.7 53.1 E | 94 8.0 18.9 ESE | 110 60.0 78.4 18.9
7/8/24 - 1000 69.8 25 32.9 50.6 ESE | 117 3.2 11.2 NW | 323 60.0 71.8 14.5
7/8/24 - 0900 67.9 26 31.9 49.6 ESE | 109 2.0 9.3 N | 10 60.0 71.7 14.5
7/8/24 - 0800 62.6 29 29.8 47.0 S | 174 0.9 3.8 SW | 232 60.0 66.3 14.5
7/8/24 - 0700 62.6 29 29.6 46.9 SW | 228 6.5 12.3 SW | 236 60.0 66.3 14.5
7/8/24 - 0600 60.3 32 30.3 46.2 SW | 230 10.1 14.5 SW | 233 60.0 66.3 14.5
7/8/24 - 0500 62.0 31 31.0 47.1 SW | 230 7.6 13.0 WSW | 244 60.4 66.3 14.2
7/8/24 - 0400 61.4 33 31.8 47.1 SW | 231 7.8 14.2 SW | 235 60.7 66.3 14.2
7/8/24 - 0300 62.0 31 31.0 47.1 SW | 231 4.3 11.7 WSW | 241 61.2 66.3 11.7
7/8/24 - 0200 64.7 27 29.9 47.8 SW | 230 2.0 6.0 SW | 229 62.5 66.3 6.0
7/8/24 - 0100 62.8 31 31.9 47.7 SW | 224 4.8 10.5 WSW | 241 57.4 83.4 40.5
7/8/24 - 0000 65.0 33 35.1 49.7 SW | 235 11.2 18.4 SW | 225 57.4 83.4 40.5
7/7/24 - 2300 63.8 38 37.4 50.1 SW | 230 19.5 26.7 SW | 229 57.4 83.4 40.5
7/7/24 - 2200 64.6 37 37.9 50.6 SW | 229 26.0 38.6 SW | 225 57.4 83.4 40.5
7/7/24 - 2100 65.1 36 37.7 50.7 SW | 228 30.1 35.9 SW | 230 57.4 83.4 40.5
7/7/24 - 2000 69.4 34 39.5 53.0 SW | 227 29.6 39.2 SW | 214 57.4 83.4 40.5
7/7/24 - 1900 72.9 30 39.4 54.0 SW | 228 27.4 36.8 SSW | 213 57.4 83.4 40.5
7/7/24 - 1800 77.1 22 35.3 53.7 SW | 223 25.2 36.2 SW | 227 57.4 83.4 40.5
7/7/24 - 1700 77.4 20 33.5 53.2 SW | 225 23.7 40.5 SW | 223 57.4 83.4 40.5
7/7/24 - 1600 80.1 18 32.9 53.8 SW | 228 16.7 32.2 SW | 217 57.4 83.4 32.2
Max 80.1 80 45.9 55.1 - 41.0 70.6 - 63.1 83.4 70.6
Avg 66.0 27 27.8 48.0 - 16.3 26.8 - - - -
Min 50.6 7 -2.6 40.7 - 0.9 2.1 - 47.0 53.8 6.0

Last 365 Observations

Top of 22 - 10,067ft

Daily Data | America/Los_Angeles
as of 7/14/24 3:15 PM PDT
Date Daily Max Temp (°F) Time of Max Temp Daily Min Temp (°F) Time of Min Temp Wind Spd (mph) Daily Max Wind (mph) Time of Max Wind Max Wind Dir (°) Dew Pt (°F) Max RH (%) Min RH (%) Wet Bulb (°F) Max Wet Bulb Temp (°F) Min Wet Bulb Temp (°F) WetB Hrs <28F (hrs) Hrs <= 32F (hrs) Min Wind Chill (°F) Wind Chill Time Heat Index Max (°F) Heat Index Max Time
7/13/24 77.3 1519 49.7 2228 13.7 70.6 1635 SE | 137 35.5 86 23 48.4 54.6 44.3 0.0 0.0 46.2 2229 - -
7/12/24 79.2 1214 58.7 0546 9.8 55.2 1503 SE | 138 29.6 49 15 48.6 53.1 43.9 0.0 0.0 - - - -
7/11/24 80.9 1435 61.9 0611 16.2 38.8 1839 SSW | 205 21.6 40 10 47.3 51.8 42.3 0.0 0.0 - - 80.0 -
7/10/24 76.4 1116 58.4 0602 18.4 53.8 1430 SW | 214 19.7 28 8 46.2 50.2 42.8 0.0 0.0 - - - -
7/9/24 78.8 1147 61.1 0621 22.0 47.5 2107 SSW | 213 18.3 34 6 46.4 51.8 40.1 0.0 0.0 - - - -
7/8/24 80.1 1305 60.0 0558 17.4 47.4 2055 SW | 218 31.0 35 14 49.3 54.4 43.0 0.0 0.0 - - - -
7/7/24 83.4 1413 57.4 0622 12.1 40.5 1657 SW | 223 33.1 39 15 50.2 54.9 45.0 0.0 0.0 - - 80.7 1412
7/6/24 86.8 1422 55.2 0609 12.0 38.8 1702 SW | 219 26.3 39 10 48.1 54.0 40.2 0.0 0.0 - - 83.3 1422
7/5/24 84.4 1330 53.3 0453 10.7 34.5 1618 SW | 225 26.0 39 12 47.4 55.9 39.0 0.0 0.0 - - 81.4 1330
7/4/24 78.1 1201 54.7 0510 12.8 37.4 1728 SW | 223 34.8 58 16 49.5 54.3 42.5 0.0 0.0 - - - -
7/3/24 73.5 1614 49.7 0540 15.0 40.5 1345 SSW | 210 32.4 57 21 47.8 55.4 38.2 0.0 0.0 46.5 0540 - -
7/2/24 76.1 1241 46.4 0543 13.3 36.8 1530 SW | 216 31.7 48 23 46.4 54.7 37.7 0.0 0.0 39.6 0505 - -
7/1/24 73.7 1800 43.8 0559 15.1 36.8 1439 SW | 220 34.5 73 16 48.3 55.4 40.3 0.0 0.0 37.2 0431 - -
6/30/24 63.0 1629 48.1 0525 24.9 52.8 0113 SSW | 204 29.9 61 26 43.5 48.9 38.8 0.0 0.0 38.1 0549 - -
6/29/24 67.0 1632 48.7 0602 16.7 51.9 0006 SSW | 196 29.8 58 20 44.3 48.8 39.7 0.0 0.0 40.9 2239 - -
6/28/24 68.0 1350 50.1 0502 17.7 39.9 2026 SW | 218 23.2 40 16 43.3 49.0 36.5 0.0 0.0 - - - -
6/27/24 63.8 1454 46.8 0505 33.3 56.8 0646 SW | 217 33.0 85 19 44.5 48.3 39.1 0.0 0.0 35.3 0613 - -
6/26/24 66.9 1307 47.8 0049 28.1 48.7 1847 SW | 223 42.2 83 41 48.8 53.7 44.4 0.0 0.0 37.5 0043 - -
6/25/24 73.8 1150 52.0 0058 19.3 39.9 0003 SW | 218 44.1 77 34 51.5 57.4 47.6 0.0 0.0 - - - -
6/24/24 69.0 1330 51.7 0542 22.7 57.8 1601 SSW | 211 42.3 70 40 49.6 55.1 45.0 0.0 0.0 - - - -
6/23/24 66.8 1637 52.4 0531 33.2 62.5 1720 SW | 215 30.2 59 18 45.2 48.4 41.9 0.0 0.0 - - - -
6/22/24 76.2 1226 52.6 0449 17.7 48.0 2357 SSW | 202 29.8 43 18 46.6 52.6 40.6 0.0 0.0 - - - -
6/21/24 79.9 1712 46.5 0522 10.9 26.2 1204 ESE | 122 24.9 38 13 44.2 55.6 36.1 0.0 0.0 38.6 0313 - -
6/20/24 68.3 1313 42.0 0423 14.5 34.5 1606 SW | 220 23.4 43 20 40.8 48.3 32.7 0.0 0.0 33.1 0553 - -
6/19/24 62.5 1213 38.8 0152 10.8 32.5 1716 SW | 223 22.5 53 23 38.7 46.6 30.8 0.0 0.0 31.0 0410 - -
6/18/24 53.3 1602 29.8 0523 16.4 45.6 1240 SW | 223 12.4 57 6 32.8 41.9 22.8 4.9 3.3 23.6 0528 - -
6/17/24 59.6 1517 32.2 0030 26.5 54.1 0835 SSW | 211 17.1 63 14 34.0 45.4 24.5 4.2 0.0 20.9 0602 - -
6/16/24 64.6 1322 41.1 0059 27.0 53.7 1944 SW | 229 27.5 64 23 40.6 49.4 33.3 0.0 0.0 27.2 0059 - -
6/15/24 63.4 1721 43.0 0302 31.7 65.2 0547 SW | 221 26.9 54 24 40.8 49.0 35.9 0.0 0.0 29.6 0547 - -
6/14/24 64.5 1405 44.3 0059 20.5 47.2 1945 SSW | 210 29.5 77 22 43.2 50.8 36.8 0.0 0.0 32.4 0059 - -
6/13/24 77.0 1318 49.5 0059 16.2 46.6 1837 SW | 225 39.9 86 16 48.7 58.1 44.5 0.0 0.0 42.2 0042 - -
6/12/24 75.6 1323 52.4 0555 11.4 39.1 1907 SW | 226 37.6 73 15 49.5 55.6 44.7 0.0 0.0 - - - -
6/11/24 77.3 1243 50.2 0405 10.2 36.5 1604 SW | 223 37.6 66 20 48.6 54.1 43.9 0.0 0.0 - - - -
6/10/24 76.2 1517 44.2 0557 14.4 33.4 1817 SW | 235 38.0 71 22 47.2 54.5 40.0 0.0 0.0 34.9 0550 - -
6/9/24 69.6 1121 48.9 0059 16.0 47.4 1811 SW | 223 35.1 67 20 46.1 52.0 37.2 0.0 0.0 41.3 0057 - -
6/8/24 72.1 1243 51.5 0005 16.3 41.1 2001 SW | 217 29.0 59 14 45.4 52.9 38.0 0.0 0.0 - - - -
6/7/24 72.2 1318 51.4 0531 20.4 40.3 1749 SW | 220 35.4 68 11 47.4 54.5 38.8 0.0 0.0 - - - -
6/6/24 72.2 1256 52.9 0101 16.0 45.7 2249 SW | 222 38.7 66 26 49.3 54.0 45.4 0.0 0.0 - - - -
6/5/24 73.9 1225 48.9 0245 11.4 34.1 1828 SW | 227 37.5 60 27 48.6 54.1 41.7 0.0 0.0 46.0 0125 - -
6/4/24 78.4 1725 42.3 0534 13.3 30.0 0446 N | 4 35.2 71 24 45.7 55.7 37.0 0.0 0.0 32.8 0446 - -
6/3/24 52.4 1700 42.6 2343 26.1 60.7 1436 SSW | 213 36.2 87 49 42.0 45.6 38.5 0.0 0.0 31.6 1126 - -
6/2/24 68.3 1754 40.8 0507 16.6 47.5 0454 SW | 223 29.6 71 22 42.3 52.5 33.6 0.0 0.0 27.2 0454 - -
6/1/24 58.7 1432 41.7 0520 30.2 43.9 1625 SW | 220 26.8 74 18 39.2 47.4 32.9 0.0 0.0 29.2 0520 - -
5/31/24 63.0 1349 39.4 0528 15.8 42.9 2230 SW | 218 25.3 60 22 39.6 46.4 32.9 0.0 0.0 32.1 0607 - -
5/30/24 60.7 1418 40.2 0245 14.6 47.4 1944 SW | 226 25.8 61 20 40.2 45.5 35.2 0.0 0.0 33.9 0101 - -
5/29/24 64.7 1732 38.8 0615 19.4 43.5 0457 SW | 225 27.0 76 23 39.4 50.1 32.7 0.0 0.0 25.5 0457 - -
5/28/24 57.2 1027 40.6 0528 17.9 47.8 2005 SW | 223 33.5 84 36 41.2 47.4 36.1 0.0 0.0 28.6 2026 - -
5/27/24 63.1 1334 38.2 0440 11.4 39.0 1626 SW | 218 29.5 73 28 40.3 49.2 32.7 0.0 0.0 30.6 0434 - -
5/26/24 56.9 1325 38.2 0405 14.8 37.6 1700 SW | 219 16.2 54 16 35.6 42.1 29.0 0.0 0.0 27.6 0458 - -
5/25/24 48.5 1635 27.5 0541 27.4 48.3 0421 SW | 230 25.6 96 27 32.9 41.6 26.7 4.8 7.7 8.3 0540 - -
5/24/24 45.1 1421 30.9 0056 31.1 50.0 1404 SW | 228 23.7 92 19 32.1 39.1 27.0 0.7 1.8 14.6 0054 - -
5/23/24 52.4 1410 35.6 0143 26.0 50.9 0248 SW | 231 22.8 88 30 34.2 43.0 28.2 0.0 0.0 20.0 0554 - -
5/22/24 45.7 1508 34.1 0430 37.3 59.6 1753 SW | 218 25.9 94 26 34.1 39.9 28.6 0.0 0.0 17.4 0430 - -
5/21/24 54.9 1428 23.9 0544 9.5 30.6 1815 SW | 228 19.7 85 16 31.3 43.9 20.3 8.4 7.9 11.4 0433 - -
5/20/24 43.4 1446 27.0 0053 27.3 49.6 0659 SW | 224 25.1 92 47 31.1 38.1 23.6 6.2 9.2 12.8 0430 - -
5/19/24 46.4 1508 32.1 0011 35.5 65.6 1251 SW | 223 28.9 93 43 34.8 39.4 28.8 0.0 0.0 16.2 0014 - -
5/18/24 59.9 1211 38.4 0057 12.8 44.6 2101 SW | 225 32.3 97 32 40.3 47.8 34.8 0.0 0.0 24.4 0051 - -
5/17/24 61.3 1547 41.2 0625 16.5 31.8 1833 SW | 231 30.6 86 23 41.1 49.7 33.4 0.0 0.0 31.6 0544 - -
5/16/24 69.0 1432 37.8 0452 10.0 34.9 1723 SW | 217 27.8 91 17 40.2 52.4 31.1 0.0 0.0 31.5 0531 - -
5/15/24 66.4 1527 38.4 0603 14.4 29.0 2105 NNW | 333 23.6 61 19 38.4 47.7 32.9 0.0 0.0 27.7 0556 - -
5/14/24 57.5 1308 38.1 0618 9.6 28.2 1711 E | 93 29.3 69 35 38.6 46.0 34.0 0.0 0.0 28.0 0549 - -
5/13/24 57.2 1336 36.6 1928 7.6 37.8 1637 SSW | 206 30.3 87 31 38.0 44.8 34.4 0.0 0.0 24.8 1913 - -
5/12/24 54.3 1414 35.0 0321 11.0 34.7 1833 SW | 232 25.0 77 23 37.0 45.3 29.7 0.0 0.0 25.5 0359 - -
5/11/24 58.8 1629 30.1 0544 14.6 27.9 1814 N | 8 21.5 65 22 34.2 43.8 26.6 4.1 3.8 16.3 0548 - -
5/10/24 51.5 1727 28.4 0600 15.0 32.1 1424 WNW | 303 21.5 80 24 31.8 38.8 26.3 4.3 6.8 16.3 0530 - -
5/9/24 49.2 1629 19.8 0610 14.5 33.4 1507 ENE | 71 19.1 82 31 27.7 38.6 18.4 9.5 11.5 3.8 0605 - -
5/8/24 46.6 1700 17.6 0648 11.1 32.9 1910 NNW | 341 12.6 74 23 24.4 35.3 15.8 17.1 16.2 2.8 0635 - -
5/7/24 49.0 1752 24.0 0059 20.6 52.1 0125 SW | 214 6.9 67 17 27.0 38.0 20.6 15.2 12.2 10.7 0123 - -
5/6/24 32.1 1753 20.4 0229 24.0 52.8 2217 SSW | 211 21.0 100 18 25.3 31.4 20.0 14.2 23.8 0.2 0321 - -
5/5/24 23.7 1810 9.2 0618 24.0 65.3 0124 SW | 219 15.2 98 90 16.2 23.4 9.0 - - -17.1 0541 - -
5/4/24 33.5 0101 13.9 0058 43.6 98.9 1155 SW | 214 24.2 100 78 24.8 33.1 13.5 12.3 22.6 -13.3 0056 - -
5/3/24 47.5 1334 32.8 0333 23.4 50.3 2347 SSW | 213 25.4 99 40 33.1 39.9 27.4 0.9 0.0 16.5 2347 - -
5/2/24 47.1 1218 30.8 0327 16.4 46.1 1901 SW | 230 19.8 95 22 32.1 39.7 24.8 6.2 0.6 18.8 2044 - -
5/1/24 49.0 1341 26.6 0341 10.4 29.5 1720 SW | 232 13.4 87 17 29.7 38.8 21.8 10.6 8.6 16.1 0345 - -
4/30/24 43.9 1531 31.7 0051 24.1 43.3 1041 SSW | 210 11.1 95 15 29.9 37.5 25.6 10.8 0.5 18.6 2245 - -
4/29/24 49.8 1618 27.9 0518 20.8 56.2 0424 SW | 220 17.0 99 14 31.2 42.0 22.7 6.8 6.0 8.9 0515 - -
4/28/24 44.8 1432 26.3 0426 12.2 36.9 0059 SW | 224 24.6 88 34 31.4 39.6 24.8 7.2 8.0 15.2 0400 - -
4/27/24 46.9 1726 17.6 0548 6.4 23.6 0105 NNE | 28 22.1 97 41 26.9 38.9 17.1 12.8 14.7 4.1 0105 - -
4/26/24 25.7 0102 20.1 2040 23.9 55.4 0153 SW | 217 22.5 99 94 22.8 25.5 19.7 - - 0.0 0713 - -
4/25/24 36.1 1257 25.3 0054 25.6 49.8 2322 SSW | 209 20.9 99 36 27.2 33.0 22.7 15.9 16.0 5.1 0052 - -
4/24/24 39.8 0953 29.5 2259 19.2 37.4 1726 SW | 226 18.4 90 19 29.2 34.0 24.6 8.3 6.5 14.4 2240 - -
4/23/24 46.3 1327 34.6 1921 23.3 49.8 1645 SW | 221 26.8 94 35 34.5 40.8 29.0 0.0 0.0 18.5 1950 - -
4/22/24 49.7 1304 37.8 2335 21.7 47.9 1951 SW | 222 28.0 82 38 36.9 41.0 32.1 0.0 0.0 23.6 2334 - -
4/21/24 53.5 1644 37.3 0349 15.5 37.7 1813 SW | 229 24.7 59 31 36.8 42.2 31.3 0.0 0.0 30.5 2139 - -
4/20/24 52.2 1550 36.0 0101 11.6 26.7 1613 WSW | 245 24.3 75 30 35.8 43.5 31.1 0.0 0.0 25.6 0637 - -
4/19/24 48.1 1747 33.4 0231 15.7 38.6 0131 SSW | 200 21.0 76 28 32.8 41.8 27.8 0.1 0.0 18.1 0159 - -
4/18/24 43.0 1442 34.7 0028 34.2 49.6 1328 SSW | 212 18.7 95 22 31.5 36.9 27.2 2.2 0.0 19.4 2048 - -
4/17/24 47.2 1511 34.7 0504 24.6 40.9 0025 SW | 222 19.8 94 24 33.0 39.8 28.1 0.0 0.0 20.9 0507 - -
4/16/24 45.8 1225 26.5 0425 11.4 34.3 1518 SW | 235 19.0 90 23 30.8 37.3 22.1 7.8 6.1 18.4 0309 - -
4/15/24 44.9 1715 16.6 0337 10.8 32.7 0719 NE | 44 19.2 97 22 25.3 35.4 16.1 16.3 17.0 -1.3 0557 - -
4/14/24 23.7 1137 11.4 0421 25.0 51.2 0301 SSW | 212 16.5 98 91 17.4 23.4 11.0 - - -15.0 0301 - -
4/13/24 33.7 1503 13.4 0055 33.4 66.3 1850 SW | 222 15.3 97 35 22.6 29.4 13.0 20.1 19.2 -11.6 2158 - -
4/12/24 39.6 0948 28.5 2142 26.8 60.0 1310 SW | 233 24.7 84 48 31.0 34.4 26.3 4.1 5.7 8.9 2152 - -
4/11/24 49.6 1318 34.2 0125 10.9 37.0 1625 SW | 221 20.6 65 28 33.8 38.7 29.7 0.0 0.0 25.2 2136 - -
4/10/24 50.1 1319 30.9 0346 6.6 25.8 1521 WSW | 237 20.2 62 26 32.5 39.2 25.0 5.5 4.0 26.0 0030 - -
4/9/24 50.8 1632 18.2 0120 8.1 20.8 2021 NNW | 340 9.2 74 10 27.9 39.3 16.3 10.5 8.5 3.5 0105 - -
4/8/24 33.2 1635 11.4 0607 19.0 37.4 1714 NNE | 14 11.7 94 36 17.7 26.9 11.1 - 22.7 -11.2 0335 - -
4/7/24 30.0 1720 12.8 0046 18.3 42.8 1924 NNE | 23 5.8 96 22 15.5 24.8 9.8 - - -7.7 0558 - -
4/6/24 16.8 1719 4.8 0101 23.6 62.9 1353 SW | 228 8.9 93 68 11.7 16.0 4.8 - - -17.3 0134 - -
4/5/24 10.3 1423 4.6 0055 25.3 60.3 1124 SW | 216 5.4 92 88 7.6 10.1 4.6 - - -20.9 1002 - -
4/4/24 27.1 0148 6.1 0037 28.4 95.0 0625 SSE | 154 15.3 100 86 16.4 26.2 6.0 - - -20.2 1858 - -
4/3/24 38.2 0923 25.7 0059 27.8 68.7 1913 SW | 227 22.4 99 36 29.4 33.1 25.4 6.3 8.4 5.6 2150 - -
4/2/24 49.9 1731 22.3 0138 9.8 31.3 0347 NNE | 20 23.7 100 27 28.6 39.1 21.9 9.3 13.7 4.2 0136 - -
4/1/24 30.9 1655 12.6 0551 19.5 53.8 1918 SSE | 154 20.6 100 92 21.1 30.8 12.2 19.1 - -7.0 0549 - -
3/31/24 21.4 1713 13.7 0207 26.7 49.0 0355 SW | 229 15.7 97 93 16.6 21.1 13.4 - - -11.4 0355 - -
3/30/24 25.5 1244 14.0 0637 21.9 70.7 0620 SSW | 208 16.5 99 93 17.4 25.2 13.6 - - -14.3 0620 - -
3/29/24 20.3 0011 14.7 0536 24.1 56.0 0810 SSW | 213 16.5 96 93 17.4 19.9 14.3 - - -10.5 0810 - -
3/28/24 22.2 0439 18.2 0059 33.0 68.6 1142 SW | 217 19.5 98 95 20.0 21.8 17.8 - - -4.9 2240 - -
3/27/24 31.0 1106 21.4 0212 33.7 69.7 1430 SW | 226 13.0 98 20 22.2 26.1 17.4 - - -1.1 2311 - -
3/26/24 27.6 1526 13.4 0724 17.4 42.7 0247 W | 268 15.3 95 50 18.6 26.2 12.9 - - -7.0 0430 - -
3/25/24 23.0 1459 10.6 0428 18.0 41.0 1723 W | 268 14.8 98 90 16.0 22.6 10.2 - - -11.9 0505 - -
3/24/24 22.1 1642 11.8 0420 23.5 49.8 0729 SW | 224 13.3 97 91 14.6 21.7 11.5 - - -14.2 0345 - -
3/23/24 22.2 0108 12.6 0059 32.3 74.9 0858 SW | 221 15.8 97 92 16.9 21.8 12.2 - - -12.0 2348 - -
3/22/24 32.4 1225 22.0 0048 32.2 71.0 2011 SW | 218 19.2 98 25 25.9 29.5 21.6 22.5 23.6 -1.2 0044 - -
3/21/24 35.7 1641 25.3 0329 30.0 54.2 0648 SW | 227 18.6 87 27 26.4 31.8 23.1 17.8 14.9 4.7 0648 - -
3/20/24 38.0 1443 26.8 0059 19.0 55.4 2209 SW | 223 22.8 97 50 29.2 34.1 25.0 11.7 12.2 6.5 0053 - -
3/19/24 49.5 1707 26.9 0529 6.6 20.6 2329 NNE | 13 19.1 69 27 29.7 38.6 23.9 9.0 8.9 17.8 0101 - -
3/18/24 45.7 1521 24.5 0651 15.1 29.1 1920 NNE | 24 19.3 79 37 27.8 37.5 22.6 15.3 14.3 9.5 0510 - -
3/17/24 39.5 1538 22.1 0652 17.6 35.4 1834 NNE | 13 20.2 88 48 25.8 33.4 20.9 16.9 17.4 5.7 0129 - -
3/16/24 36.4 1538 18.8 0549 17.4 37.2 2227 NNE | 22 19.8 92 57 23.9 31.9 18.2 19.2 20.2 1.6 0110 - -
3/15/24 23.0 1411 14.0 0804 24.9 50.2 0834 NNE | 30 16.2 97 83 17.6 22.4 13.6 - - -11.4 0820 - -
3/14/24 20.1 1514 5.5 0708 33.4 70.6 0722 NNE | 21 9.4 95 64 11.8 18.0 5.4 - - -27.0 0707 - -
3/13/24 32.4 1633 9.1 0055 18.2 55.7 2145 N | 10 12.8 96 48 18.6 28.2 8.7 24.0 23.9 -18.3 0026 - -
3/12/24 26.0 1211 16.9 0046 36.0 59.2 0428 SW | 220 20.8 100 38 21.8 25.9 16.6 - - -5.0 0034 - -
3/11/24 27.1 2326 17.5 0506 36.6 66.8 0500 SW | 221 19.1 98 54 21.2 24.8 17.2 - - -8.9 0500 - -
3/10/24 28.2 1624 19.5 0051 47.9 67.6 1450 SW | 219 9.7 99 27 20.9 25.9 17.9 - - -3.9 0055 - -
3/9/24 28.3 1129 22.0 1917 40.0 62.6 2332 SW | 225 6.4 84 22 20.2 23.7 17.4 - - 1.2 2226 - -
3/8/24 29.1 1512 11.0 0638 10.9 40.2 2359 SW | 220 18.6 100 84 19.4 29.0 10.8 22.5 - -8.9 0642 - -
3/7/24 27.6 1340 14.7 0219 9.5 33.3 1908 N | 8 19.1 100 93 19.6 27.5 14.3 - - -0.6 1948 - -
3/6/24 30.0 1446 15.5 0012 13.2 38.6 0001 SW | 228 20.2 100 94 20.6 29.8 15.2 21.1 - -7.1 0001 - -
3/5/24 20.6 1442 14.8 0636 31.5 51.0 0914 WSW | 238 15.8 97 94 16.7 20.3 14.5 - - -9.4 0728 - -
3/4/24 18.8 1929 8.4 0656 33.8 68.8 0039 SW | 224 12.6 96 90 13.8 18.5 8.2 - - -20.1 0737 - -
3/3/24 13.5 0005 9.2 0401 37.3 87.8 1942 WSW | 238 9.3 93 91 10.9 13.2 9.0 - - -19.9 2220 - -
3/2/24 19.1 0056 9.0 1754 36.4 138.2 0451 WSW | 239 10.9 96 91 12.3 18.8 8.8 - - -23.4 1348 - -
3/1/24 21.7 1345 17.8 1901 30.4 103.8 1909 SE | 145 18.4 97 95 19.0 21.4 17.4 - - -12.6 1909 - -
2/29/24 24.2 0022 18.4 2359 44.6 79.4 1444 SW | 217 19.0 98 53 20.8 23.2 18.0 - - -7.5 2320 - -
2/28/24 31.6 1212 23.1 0358 30.7 54.4 2357 SW | 214 16.1 97 46 23.2 27.0 19.6 - - 1.8 2015 - -
2/27/24 28.5 1636 15.2 0556 19.3 76.8 0040 WSW | 249 19.4 100 66 20.4 28.4 14.8 23.9 - -8.0 0317 - -
2/26/24 24.4 1004 19.9 2358 47.2 79.2 0737 SW | 218 20.4 98 73 21.5 23.5 19.1 - - -6.3 2356 - -
2/25/24 34.5 1226 22.4 2358 27.5 57.6 2210 SW | 218 11.0 99 17 23.9 28.4 21.0 23.9 19.7 -0.5 2351 - -
2/24/24 35.5 1322 21.8 0001 11.4 39.0 2202 SSW | 211 14.2 88 37 24.3 29.4 20.0 19.9 18.2 10.4 2209 - -
2/23/24 31.5 1530 18.2 0326 3.6 14.6 1735 NNW | 345 20.2 95 70 22.0 30.5 16.9 20.0 - 7.1 0650 - -
2/22/24 30.4 1625 13.7 0312 3.7 17.1 0822 SSW | 204 19.0 99 90 19.9 30.1 13.4 22.4 -